GW2521 Weather Reports


time (UTC)temp
C
wind
direction
speed
KPH
gust
KPH
rain 1hr
cm
rain 24hr
cm
rain mn
cm
humidity
%
barometer
mb
20260509024435 11 82 0.0 0.0 0.00 0.10 0.10 94 1008.4
20260509023932 11 101 0.0 0.0 0.00 0.10 0.10 94 1008.5
20260509023429 11 142 0.0 0.0 0.00 0.10 0.10 95 1008.5
20260509022926 11 104 0.0 0.0 0.00 0.10 0.10 95 1008.5
20260509022423 11 114 0.0 0.0 0.00 0.10 0.10 95 1008.6
20260509021920 11 122 0.0 0.0 0.00 0.10 0.10 94 1008.5
20260509021417 11 113 0.0 0.0 0.00 0.10 0.10 94 1008.5
20260509020914 11 106 0.0 0.0 0.00 0.10 0.10 94 1008.4
20260509020412 11 94 0.0 0.0 0.00 0.10 0.10 93 1008.7
20260509015908 11 94 0.0 0.0 0.00 0.10 0.10 93 1008.6
20260509015403 11 103 0.0 0.0 0.00 0.10 0.10 93 1008.5
20260509014858 11 176 0.0 0.0 0.00 0.10 0.10 93 1008.5
20260509014355 11 133 0.0 0.0 0.00 0.10 0.10 93 1008.3
20260509013852 12 164 0.0 0.0 0.00 0.10 0.10 93 1008.5
20260509013348 12 135 0.0 1.6 0.00 0.10 0.10 92 1008.1
20260509012844 12 205 1.6 1.6 0.00 0.10 0.10 92 1008.3
20260509012341 12 179 1.6 1.6 0.00 0.10 0.10 92 1008.2
20260509011838 12 153 1.6 1.6 0.00 0.10 0.10 92 1008.2
20260509011336 12 206 4.8 4.8 0.00 0.10 0.10 92 1007.8
20260509010833 12 208 1.6 3.2 0.00 0.10 0.10 91 1008.1
20260509010331 12 201 1.6 1.6 0.00 0.10 0.10 91 1007.8
20260509005827 12 189 6.4 8.0 0.00 0.10 0.10 90 1008.1
20260509005325 12 195 6.4 8.0 0.00 0.10 0.10 90 1007.8
20260509004820 12 205 4.8 4.8 0.00 0.10 0.10 89 1007.9
20260509004316 12 209 4.8 9.7 0.00 0.10 0.10 89 1007.9
20260509003814 12 221 8.0 9.7 0.00 0.10 0.10 89 1008.1
20260509003312 12 187 4.8 8.0 0.00 0.10 0.10 89 1007.8
20260509002809 12 195 8.0 9.7 0.00 0.10 0.10 89 1007.8
20260509002306 12 194 4.8 4.8 0.00 0.10 0.10 88 1008.1
20260509001804 12 139 4.8 9.7 0.00 0.10 0.10 88 1008.1
20260509001300 13 207 8.0 9.7 0.00 0.10 0.10 87 1008.3
20260509000758 13 220 6.4 8.0 0.00 0.10 0.10 87 1008.1
20260509000256 13 216 6.4 8.0 0.00 0.10 0.10 86 1008.1
20260508235751 13 185 8.0 9.7 0.00 0.10 0.10 86 1008.1
20260508235248 13 214 6.4 8.0 0.00 0.10 0.10 86 1008.1
20260508234745 13 187 6.4 8.0 0.00 0.10 0.10 86 1008.2
20260508234241 13 202 4.8 4.8 0.00 0.10 0.10 86 1007.8
20260508233735 13 216 3.2 3.2 0.00 0.10 0.10 86 1008.1
20260508233234 13 227 6.4 9.7 0.00 0.10 0.10 86 1008.3
20260508232730 13 212 6.4 9.7 0.00 0.10 0.10 87 1008.3
20260508232226 13 210 8.0 9.7 0.00 0.10 0.10 88 1008.1
20260508231725 13 253 8.0 9.7 0.00 0.10 0.10 88 1008.1
20260508231221 13 200 4.8 4.8 0.00 0.10 0.10 88 1008.4
20260508230718 13 204 8.0 9.7 0.00 0.10 0.10 88 1008.3
20260508230214 13 225 6.4 9.7 0.00 0.10 0.10 89 1008.3
20260508225712 13 185 8.0 9.7 0.00 0.10 0.10 89 1008.4
20260508225208 13 190 6.4 9.7 0.00 0.10 0.10 89 1008.6
20260508224706 13 156 4.8 8.0 0.00 0.10 0.10 89 1008.1
20260508224203 13 208 4.8 8.0 0.00 0.10 0.10 88 1008.3
20260508223701 13 213 4.8 9.7 0.00 0.10 0.10 88 1008.4
20260508223158 13 192 4.8 4.8 0.00 0.10 0.10 88 1008.3
20260508222655 13 186 4.8 4.8 0.00 0.10 0.10 88 1008.4
20260508222153 13 214 6.4 8.0 0.00 0.10 0.10 87 1008.5
20260508221649 13 202 6.4 8.0 0.00 0.10 0.10 87 1008.6
20260508221144 13 188 6.4 9.7 0.00 0.10 0.10 87 1008.6
20260508220641 13 201 8.0 8.0 0.00 0.10 0.10 85 1008.5
20260508220138 13 249 4.8 4.8 0.00 0.10 0.10 85 1008.5
20260508215634 13 205 8.0 12.9 0.00 0.10 0.10 84 1008.6
20260508215131 13 212 8.0 9.7 0.00 0.10 0.10 85 1008.6
20260508214628 13 221 4.8 8.0 0.00 0.10 0.10 85 1008.5
20260508214126 13 194 4.8 8.0 0.00 0.10 0.10 84 1008.5
20260508213622 13 214 8.0 9.7 0.00 0.10 0.10 84 1008.4
20260508213118 13 201 4.8 9.7 0.00 0.10 0.10 85 1008.4
20260508212615 13 261 6.4 9.7 0.00 0.10 0.10 86 1008.5
20260508212111 13 231 8.0 9.7 0.00 0.10 0.10 86 1008.7
20260508211606 13 176 1.6 1.6 0.00 0.10 0.10 86 1008.6
20260508211103 13 238 6.4 8.0 0.00 0.10 0.10 86 1008.8
20260508210600 13 189 8.0 8.0 0.00 0.10 0.10 85 1008.7
20260508210057 13 274 12.9 16.1 0.00 0.10 0.10 83 1009.1
20260508205554 13 204 9.7 11.3 0.18 0.10 0.10 84 1008.8
20260508205050 13 201 4.8 8.0 0.18 0.10 0.10 84 1008.9
20260508204547 13 190 4.8 4.8 0.00 0.08 0.08 83 1009.3
20260508204043 13 228 8.0 12.9 0.00 0.08 0.08 82 1009.0
20260508203539 13 254 3.2 3.2 0.00 0.08 0.08 82 1009.0
20260508203035 13 229 3.2 3.2 0.00 0.08 0.08 83 1009.1
20260508202532 13 183 6.4 8.0 0.13 0.08 0.08 83 1009.3
20260508202029 13 199 8.0 9.7 0.13 0.08 0.08 81 1009.0
20260508201526 14 177 1.6 1.6 0.00 0.05 0.05 81 1009.1
20260508201022 14 208 3.2 3.2 0.00 0.05 0.05 78 1009.4
20260508200520 15 184 4.8 4.8 0.00 0.05 0.05 76 1009.3
20260508200015 15 191 3.2 3.2 0.00 0.05 0.05 74 1009.2
20260508195512 15 240 3.2 3.2 0.00 0.05 0.05 72 1009.4
20260508195008 15 284 1.6 1.6 0.00 0.05 0.05 72 1009.2
20260508194506 15 191 1.6 3.2 0.00 0.05 0.05 74 1009.2
20260508194003 15 78 0.0 0.0 0.00 0.05 0.05 71 1009.2
20260508193459 15 102 1.6 1.6 0.00 0.05 0.05 71 1009.4
20260508192956 15 277 1.6 1.6 0.00 0.05 0.05 70 1009.5
20260508192452 15 53 0.0 1.6 0.00 0.05 0.05 69 1009.4
20260508191949 15 90 0.0 0.0 0.00 0.05 0.05 69 1009.7
20260508191447 15 190 1.6 3.2 0.00 0.05 0.05 71 1009.7
20260508190943 15 105 0.0 0.0 0.00 0.05 0.05 69 1009.6
20260508190441 15 334 1.6 3.2 0.00 0.05 0.05 71 1009.8
20260508185936 15 254 1.6 3.2 0.00 0.05 0.05 72 1010.0
20260508185434 15 238 3.2 4.8 0.00 0.05 0.05 71 1010.0
20260508184931 15 185 4.8 4.8 0.00 0.05 0.05 73 1010.1
20260508184429 14 97 0.0 0.0 0.00 0.05 0.05 72 1009.8
20260508183925 14 32 1.6 1.6 0.00 0.05 0.05 73 1010.0
20260508183422 14 101 0.0 0.0 0.00 0.05 0.05 73 1010.2
20260508182917 14 215 1.6 1.6 0.00 0.05 0.05 74 1010.3
20260508182415 14 124 1.6 1.6 0.00 0.05 0.05 76 1010.4
20260508181909 15 244 3.2 3.2 0.00 0.05 0.05 73 1010.4
20260508181407 15 87 0.0 0.0 0.00 0.05 0.05 73 1010.4
20260508180904 14 91 1.6 1.6 0.00 0.05 0.05 73 1010.5
20260508180401 14 318 3.2 3.2 0.00 0.05 0.05 75 1010.5
20260508175856 14 156 0.0 1.6 0.00 0.05 0.05 75 1010.8
20260508175353 13 200 3.2 3.2 0.00 0.05 0.05 75 1010.5
20260508174852 13 183 4.8 4.8 0.00 0.05 0.05 77 1010.6
20260508174349 13 201 4.8 4.8 0.00 0.05 0.05 80 1010.8
20260508173845 12 157 4.8 4.8 0.00 0.05 0.05 82 1011.1
20260508173342 12 280 1.6 3.2 0.00 0.05 0.05 81 1010.9
20260508172838 12 184 1.6 3.2 0.00 0.05 0.05 83 1011.1
20260508172335 12 192 3.2 3.2 0.00 0.05 0.05 84 1011.2
20260508171832 12 183 1.6 1.6 0.00 0.05 0.05 85 1011.3
20260508171328 12 127 1.6 1.6 0.00 0.05 0.05 85 1011.3
20260508170825 12 91 0.0 0.0 0.00 0.05 0.05 84 1011.4
20260508170323 12 112 0.0 1.6 0.00 0.05 0.05 84 1011.5
20260508165819 12 101 0.0 0.0 0.00 0.05 0.05 85 1011.7
20260508165317 11 208 1.6 1.6 0.00 0.05 0.05 85 1011.7
20260508164812 11 175 1.6 3.2 0.00 0.05 0.05 86 1011.8
20260508164309 11 233 1.6 3.2 0.18 0.05 0.05 85 1011.9
20260508163808 11 101 0.0 0.0 0.18 0.05 0.05 85 1012.1
20260508163305 11 273 1.6 3.2 0.13 0.03 0.03 84 1012.3
20260508162800 11 210 3.2 3.2 0.13 0.03 0.03 83 1012.3
20260508162257 11 222 4.8 4.8 0.00 0.00 0.00 83 1011.9
20260508161754 11 197 4.8 4.8 0.00 0.00 0.00 82 1012.0
20260508161251 11 203 11.3 14.5 0.00 0.00 0.00 82 1011.9
20260508160749 11 205 8.0 11.3 0.00 0.00 0.00 83 1011.9
20260508160248 11 211 4.8 8.0 0.00 0.00 0.00 85 1011.8
20260508155744 11 152 8.0 9.7 0.00 0.00 0.00 84 1012.0
20260508155241 11 225 3.2 3.2 0.00 0.00 0.00 86 1011.9
20260508154737 11 185 6.4 9.7 0.00 0.00 0.00 86 1011.9
20260508154235 11 238 6.4 8.0 0.00 0.00 0.00 85 1012.0
20260508153726 11 233 6.4 8.0 0.00 0.00 0.00 86 1012.1
20260508153223 10 170 4.8 4.8 0.00 0.00 0.00 85 1012.2
20260508152720 10 218 3.2 3.2 0.00 0.00 0.00 85 1012.0
20260508152215 11 197 4.8 4.8 0.00 0.00 0.00 86 1012.0
20260508151712 11 202 4.8 8.0 0.00 0.00 0.00 86 1012.1
20260508151209 10 164 4.8 4.8 0.00 0.00 0.00 86 1012.1
20260508150706 10 215 3.2 3.2 0.00 0.00 0.00 86 1012.3
20260508150203 10 199 3.2 3.2 0.00 0.00 0.00 87 1012.1
20260508145658 10 166 1.6 1.6 0.00 0.00 0.00 87 1012.1
20260508145154 10 194 4.8 4.8 0.00 0.00 0.00 86 1012.3
20260508144652 10 189 4.8 4.8 0.00 0.00 0.00 86 1012.3
20260508144150 10 260 8.0 9.7 0.00 0.00 0.00 85 1012.6
20260508143647 11 181 8.0 11.3 0.00 0.00 0.00 85 1012.6
20260508143144 11 234 6.4 9.7 0.00 0.00 0.00 84 1012.7
20260508142640 11 267 4.8 4.8 0.00 0.00 0.00 83 1012.8
20260508142137 11 225 6.4 9.7 0.00 0.00 0.00 83 1012.9
20260508141633 11 232 6.4 8.0 0.00 0.00 0.00 82 1012.9
20260508141131 11 268 6.4 8.0 0.00 0.00 0.00 82 1012.8
20260508140629 11 285 4.8 8.0 0.00 0.00 0.00 81 1012.6
20260508140125 11 248 4.8 4.8 0.00 0.00 0.00 81 1012.4
20260508135620 11 200 1.6 3.2 0.00 0.00 0.00 81 1012.2
20260508135117 11 227 3.2 4.8 0.00 0.00 0.00 80 1012.2
20260508134614 11 267 6.4 8.0 0.00 0.00 0.00 81 1012.3
20260508134111 11 340 1.6 3.2 0.00 0.00 0.00 80 1012.3
20260508133608 11 98 0.0 1.6 0.00 0.00 0.00 82 1012.6
20260508133105 11 196 4.8 4.8 0.00 0.00 0.00 80 1012.3
20260508132603 11 185 1.6 3.2 0.00 0.00 0.00 80 1012.7
20260508132059 10 242 1.6 3.2 0.00 0.00 0.00 82 1012.1
20260508131555 10 201 3.2 3.2 0.00 0.00 0.00 81 1012.0
20260508131052 10 192 3.2 3.2 0.00 0.00 0.00 81 1012.4
20260508130548 10 156 1.6 1.6 0.00 0.00 0.00 81 1012.4
20260508130045 10 266 1.6 1.6 0.00 0.00 0.00 81 1012.6
20260508125540 10 122 0.0 0.0 0.00 0.00 0.00 82 1012.6
20260508125039 10 130 0.0 0.0 0.00 0.00 0.00 81 1012.6
20260508124536 10 229 0.0 1.6 0.00 0.00 0.00 81 1012.3
20260508124033 10 295 0.0 0.0 0.00 0.00 0.00 82 1012.4
20260508123531 10 212 3.2 3.2 0.00 0.00 0.00 81 1012.3
20260508123028 10 7 1.6 1.6 0.00 0.00 0.00 81 1012.2
20260508122525 10 60 0.0 0.0 0.00 0.00 0.00 81 1012.2
20260508122022 10 256 1.6 1.6 0.00 0.00 0.00 81 1012.0
20260508121520 10 40 0.0 0.0 0.00 0.00 0.00 81 1012.0
20260508121018 10 149 0.0 1.6 0.00 0.00 0.00 81 1012.1
20260508120515 10 230 1.6 3.2 0.00 0.00 0.00 80 1012.2
20260508120013 10 61 0.0 0.0 0.00 0.00 0.00 81 1011.9
20260508115510 10 227 3.2 3.2 0.00 0.00 0.00 81 1012.2
20260508115007 10 127 0.0 1.6 0.00 0.00 0.00 81 1011.9
20260508114504 10 291 1.6 1.6 0.00 0.00 0.00 81 1011.8
20260508114000 9 280 1.6 1.6 0.00 0.00 0.00 81 1011.9
20260508113458 9 251 3.2 3.2 0.00 0.00 0.00 81 1011.9
20260508112955 9 306 4.8 4.8 0.00 0.00 0.00 81 1011.7
20260508112451 9 301 0.0 1.6 0.00 0.00 0.00 82 1011.9
20260508111948 9 263 0.0 1.6 0.00 0.00 0.00 82 1012.0
20260508111445 8 231 1.6 1.6 0.00 0.00 0.00 82 1011.7
20260508110942 8 238 4.8 4.8 0.00 0.00 0.00 82 1011.8
20260508110440 8 177 1.6 1.6 0.00 0.00 0.00 82 1011.6
20260508105939 8 199 3.2 3.2 0.00 0.00 0.00 82 1011.5
20260508105436 8 186 1.6 1.6 0.00 0.00 0.00 82 1011.5
20260508104933 8 145 1.6 1.6 0.00 0.00 0.00 83 1011.7
20260508104431 8 209 3.2 3.2 0.00 0.00 0.00 83 1011.5
20260508103927 8 192 0.0 1.6 0.00 0.00 0.00 84 1011.5
20260508103424 8 123 0.0 1.6 0.00 0.00 0.00 84 1011.3
20260508102921 8 206 4.8 4.8 0.00 0.00 0.00 84 1011.2
20260508102420 7 192 1.6 1.6 0.00 0.00 0.00 83 1011.5
20260508101916 7 193 3.2 3.2 0.00 0.00 0.00 84 1011.4
20260508101414 7 187 3.2 4.8 0.00 0.00 0.00 84 1011.5
20260508100911 7 181 3.2 3.2 0.00 0.00 0.00 83 1011.4
20260508100410 7 204 1.6 3.2 0.00 0.00 0.00 83 1011.5
20260508095905 7 290 4.8 4.8 0.00 0.00 0.00 84 1011.5
20260508095403 7 170 0.0 1.6 0.00 0.00 0.00 84 1011.7
20260508094900 7 113 0.0 0.0 0.00 0.00 0.00 84 1011.6
20260508094356 8 181 4.8 4.8 0.00 0.00 0.00 83 1011.7
20260508093853 7 209 4.8 4.8 0.00 0.00 0.00 84 1011.7
20260508093351 7 185 4.8 4.8 0.00 0.00 0.00 84 1011.5
20260508092848 7 194 4.8 4.8 0.00 0.00 0.00 84 1011.8
20260508092346 7 201 3.2 4.8 0.00 0.00 0.00 84 1011.6
20260508091844 7 140 0.0 0.0 0.00 0.00 0.00 84 1011.6
20260508091340 7 214 1.6 3.2 0.00 0.00 0.00 84 1011.8
20260508090838 7 226 3.2 3.2 0.00 0.00 0.00 83 1011.7
20260508090337 7 145 0.0 0.0 0.00 0.00 0.00 83 1011.7
20260508085832 7 222 1.6 3.2 0.00 0.00 0.00 84 1011.9
20260508085329 7 68 1.6 1.6 0.00 0.00 0.00 84 1011.6
20260508084825 7 205 3.2 4.8 0.00 0.00 0.00 84 1011.7
20260508084322 7 198 4.8 4.8 0.00 0.00 0.00 84 1012.0
20260508083820 7 168 0.0 1.6 0.00 0.00 0.00 85 1011.5
20260508083317 7 188 1.6 1.6 0.00 0.00 0.00 86 1011.8
20260508082817 7 189 1.6 3.2 0.00 0.00 0.00 85 1011.7
20260508082315 7 213 4.8 4.8 0.00 0.00 0.00 87 1011.9
20260508081812 7 141 0.0 0.0 0.00 0.00 0.00 87 1011.7
20260508081309 7 194 0.0 0.0 0.00 0.00 0.00 87 1011.8
20260508080806 7 183 0.0 0.0 0.00 0.00 0.00 87 1011.7
20260508080304 7 184 1.6 3.2 0.00 0.00 0.00 87 1011.7
20260508075800 6 191 3.2 3.2 0.00 0.00 0.00 88 1011.6
20260508075257 6 196 4.8 4.8 0.00 0.00 0.00 89 1011.7
20260508074755 6 189 6.4 8.0 0.00 0.00 0.00 89 1011.6
20260508074252 6 146 0.0 0.0 0.00 0.00 0.00 91 1011.7
20260508073749 6 150 0.0 0.0 0.00 0.00 0.00 91 1011.7
20260508073247 6 125 0.0 0.0 0.00 0.00 0.00 91 1011.7
20260508072742 6 119 0.0 0.0 0.00 0.00 0.00 91 1011.5
20260508072239 6 98 0.0 0.0 0.00 0.00 0.00 91 1011.6
20260508071737 6 108 0.0 0.0 0.00 0.00 0.00 91 1011.7
20260508071235 6 108 0.0 0.0 0.00 0.00 0.00 91 1011.8
20260508070732 6 106 0.0 0.0 0.00 0.00 0.00 91 1011.6
20260508070231 6 109 0.0 0.0 0.00 0.00 0.00 91 1011.8
20260508065727 6 112 0.0 0.0 0.00 0.00 0.00 90 1011.9
20260508065225 6 145 0.0 0.0 0.00 0.00 0.00 90 1012.0
20260508064723 6 166 0.0 0.0 0.00 0.00 0.00 91 1012.0
20260508064221 6 203 0.0 0.0 0.00 0.00 0.00 91 1012.2
20260508063718 6 130 0.0 0.0 0.00 0.00 0.00 92 1012.0
20260508063216 6 113 0.0 0.0 0.00 0.00 0.00 93 1012.2
20260508062713 6 152 0.0 0.0 0.00 0.00 0.00 93 1012.0
20260508062210 6 165 0.0 0.0 0.00 0.00 0.00 94 1012.1
20260508061707 6 185 0.0 0.0 0.00 0.00 0.00 94 1012.2
20260508061205 6 167 0.0 0.0 0.00 0.00 0.00 95 1012.0
20260508060702 6 171 0.0 0.0 0.00 0.00 0.00 95 1012.2
20260508060158 6 127 0.0 0.0 0.00 0.00 0.00 95 1012.4
20260508055654 6 103 0.0 0.0 0.00 0.00 0.00 95 1012.1
20260508055151 6 118 0.0 0.0 0.00 0.00 0.00 95 1012.3
20260508054647 6 100 0.0 0.0 0.00 0.00 0.00 95 1012.2
20260508054145 6 104 0.0 0.0 0.00 0.00 0.00 95 1012.4
20260508053642 6 92 0.0 0.0 0.00 0.00 0.00 95 1012.4
20260508053139 6 88 0.0 0.0 0.00 0.00 0.00 95 1012.6
20260508052637 6 87 0.0 0.0 0.00 0.00 0.00 95 1012.6
20260508052134 6 89 0.0 0.0 0.00 0.00 0.00 95 1012.7
20260508051630 6 89 0.0 0.0 0.00 0.00 0.00 95 1012.6
20260508051125 6 85 0.0 0.0 0.00 0.00 0.00 95 1012.3
20260508050621 6 71 0.0 0.0 0.00 0.00 0.00 95 1012.4
20260508050119 6 71 0.0 0.0 0.00 0.00 0.00 95 1012.6
20260508045615 6 71 0.0 0.0 0.00 0.00 0.00 95 1012.9
20260508045113 6 71 0.0 0.0 0.00 0.00 0.00 95 1012.6
20260508044610 6 71 0.0 0.0 0.00 0.00 0.00 95 1012.7
20260508044106 6 71 0.0 0.0 0.00 0.00 0.00 95 1012.6
20260508043603 6 69 0.0 0.0 0.00 0.00 0.00 95 1012.7
20260508043101 6 92 0.0 0.0 0.00 0.00 0.00 95 1012.7
20260508042557 6 92 0.0 0.0 0.00 0.00 0.00 94 1012.6
20260508042054 7 92 0.0 0.0 0.00 0.00 0.00 95 1012.7
20260508041550 7 93 0.0 0.0 0.00 0.00 0.00 94 1012.7
20260508041047 7 93 0.0 0.0 0.00 0.00 0.00 94 1012.7
20260508040544 7 92 0.0 0.0 0.00 0.00 0.00 94 1012.8
20260508040042 7 93 0.0 0.0 0.00 0.13 0.13 94 1012.3
20260508035538 7 84 0.0 0.0 0.00 0.13 0.13 93 1012.8
20260508035035 7 72 0.0 0.0 0.00 0.13 0.13 93 1012.8
20260508034532 7 87 0.0 0.0 0.00 0.13 0.13 93 1012.6
20260508034029 7 87 0.0 0.0 0.00 0.13 0.13 93 1012.7
20260508033527 7 87 0.0 0.0 0.00 0.13 0.13 93 1012.4
20260508033025 7 87 0.0 0.0 0.00 0.13 0.13 92 1012.9
20260508032521 7 88 0.0 0.0 0.00 0.13 0.13 92 1012.8
20260508032019 8 87 0.0 0.0 0.00 0.13 0.13 92 1012.9
20260508031516 8 87 0.0 0.0 0.00 0.13 0.13 91 1012.8
20260508031011 8 87 0.0 0.0 0.00 0.13 0.13 90 1013.1
20260508030509 8 70 0.0 0.0 0.00 0.13 0.13 88 1013.2
20260508030007 8 321 0.0 1.6 0.00 0.13 0.13 87 1013.4
20260508025502 8 158 0.0 0.0 0.00 0.13 0.13 87 1013.3
20260508024959 8 53 0.0 0.0 0.18 0.13 0.13 84 1013.2